Flag for U.S.A. Weather past 2 weeks in Pullman, Washington, U.S.A.

Now
79 °F

Sunny.


Feels Like: 78 °F
Forecast: 56 / 78 °F
Wind: 6 mph from West

Location: Pullman / Moscow Regional Airport

Current Time: Sep 17, 2014 at 7:38:41 PM

Latest Report: Sep 17, 2014 at 6:53 PM


Visibility: 9 mi

Pressure: 29.71 "Hg

Humidity: 20%

Dew point: 35 °F

Location of PullmanLocation

Historic Weather in Pullman — Graph

°F

Pullman temperature yesterday

Maximum temperature yesterday: 86 °F (at 12:53 PM)
Minimum temperature yesterday: 55 °F (at 11:53 PM)
Average temperature yesterday: 70 °F

Past Weeks' High & Low Weather Summary

 TemperatureHumidityPressure
High87 °F (Sep 15, 3:53 PM)86% (Sep 4, 3:53 AM)30.42 "Hg (Sep 4, 3:53 AM)
Low34 °F (Sep 11, 6:53 AM)10% (Sep 7, 2:53 PM)29.70 "Hg (Sep 2, 6:53 PM)
Average61 °F36%30.01 "Hg
* Reported Sep 2 5:53 PM — Sep 17 5:53 PM, Pullman, Weather by CustomWeather, © 2014

Note: Actual official high and low records may vary slightly from our data, if they occured in-between our weather recording intervals... More about our weather records

Advertising

Pullman weather history for previous 24 hours

 ConditionsComfort  
Time TempWeatherWind HumidityBarometerVisibility
5:53 PM
Sep 17
82 °FSunny.7 mph19%29.71 "Hg10 mi
4:53 PM85 °FSunny.6 mph20%29.70 "Hg5 mi
3:53 PM84 °FSunny.3 mph19%29.71 "Hg6 mi
2:53 PM84 °FSunny.9 mph19%29.73 "Hg6 mi
1:53 PM84 °FSunny.5 mph19%29.75 "Hg6 mi
12:53 PM81 °FSunny.8 mph21%29.76 "Hg9 mi
11:53 AM79 °FSunny.10 mph22%29.78 "Hg8 mi
10:53 AM75 °FSunny.7 mph26%29.80 "Hg9 mi
9:53 AM72 °FSunny.9 mph28%29.81 "Hg9 mi
8:53 AM66 °FSunny.3 mph33%29.83 "Hg8 mi
7:53 AM62 °FSunny.5 mph35%29.81 "Hg9 mi
6:53 AM48 °FClear.No wind52%29.85 "Hg9 mi
5:53 AM47 °FClear.No wind52%29.83 "Hg10 mi
4:53 AM49 °FClear.No wind48%29.83 "Hg10 mi
3:53 AM50 °FClear.No wind46%29.83 "Hg10 mi
2:53 AM50 °FClear.No wind44%29.83 "Hg10 mi
1:53 AM50 °FClear.No wind46%29.83 "Hg10 mi
12:53 AM53 °FClear.No wind41%29.83 "Hg10 mi
11:53 PM
Sep 16
55 °FClear.No wind44%29.83 "Hg10 mi
10:53 PM56 °FClear.No wind36%29.83 "Hg10 mi
9:53 PM58 °FClear.No wind35%29.83 "Hg10 mi
8:53 PM63 °FClear.No wind28%29.83 "Hg10 mi
7:53 PM67 °FSunny.No wind24%29.83 "Hg9 mi
Weather by CustomWeather, © 2014

See weather overviewHow to use our weather pages